New Bern, NC

6:12 AM EDT on September 26, 2017 (GMT -0400)
Craven County Regional

Weather History for KEWN - June, 2014

Change the Weather History Date:

Tuesday, June 17, 2014

  Actual Average Record
Temperature  
Mean Temperature 84 °F 78 °F  
Max Temperature 95 °F 87 °F 95 °F (1950)
Min Temperature 72 °F 68 °F 55 °F (1961)
Degree Days  
Heating Degree Days 0 0  
Month to date heating degree days 0 0  
Since 1 June heating degree days 0 0  
Since 1 July heating degree days 2637 2701  
Cooling Degree Days 19 13  
Month to date cooling degree days 215 184  
Year to date cooling degree days 576 427  
Since 1 June cooling degree days 215 184  
Growing Degree Days 32 (Base 50)    
Moisture  
Dew Point 70 °F    
Average Humidity 68    
Maximum Humidity 90    
Minimum Humidity 46    
Precipitation  
Precipitation 0.07 in 0.15 in 1.76 in (1953)
Month to date precipitation 2.14 2.53  
Year to date precipitation 20.02 21.92  
Snow  
Snow 0.00 in - - ()
Month to date snowfall 0.0  
Since 1 July snowfall 14.0  
Snow Depth 0.00 in    
Sea Level Pressure  
Sea Level Pressure 30.14 in    
Wind  
Wind Speed 7 mph (SW)    
Max Wind Speed 16 mph    
Max Gust Speed 20 mph    
Visibility 10 miles    
Events Rain    
T = Trace of Precipitation, MM = Missing Value Source: NWS Daily Summary

Daily Weather History Graph

Daily Weather History Graph

Search for Another Location

Airport or City:

Trip Planner

Search our weather history database for the weather conditions in past years. The results will help you decide how hot, cold, wet, or windy it might be!

Date:

Astronomy

Jun. 17, 2014 Rise Set
Actual Time 5:53 AM EDT 8:24 PM EDT
Civil Twilight 5:23 AM EDT 8:54 PM EDT
Nautical Twilight 4:47 AM EDT 9:31 PM EDT
Astronomical Twilight 4:06 AM EDT 10:11 PM EDT
Moon No Moon Rise 10:55 AM EDT (6/17)
Length of Visible Light 15h 30m
Length of Day
14h 30m
Waning Gibbous, 73% of the Moon is Illuminated
Jun 17
Waning Gibbous
Jun 19
Last Quarter
Jun 27
New
Jul 5
First Quarter
Jul 12
Full

Hourly Weather History & Observations

Time (EDT) Temp. Heat Index Dew Point Humidity Pressure Visibility Wind Dir Wind Speed Gust Speed Precip Events Conditions
12:54 AM 75.0 °F - 68.0 °F 79% 30.15 in 10.0 mi SSW 6.9 mph - N/A   Clear
1:54 AM 73.9 °F - 68.0 °F 82% 30.16 in 10.0 mi WSW 3.5 mph - N/A   Clear
2:54 AM 73.0 °F - 68.0 °F 84% 30.14 in 10.0 mi SSW 5.8 mph - N/A   Clear
3:54 AM 73.0 °F - 68.0 °F 84% 30.13 in 10.0 mi SW 4.6 mph - N/A   Clear
4:54 AM 72.0 °F - 68.0 °F 87% 30.14 in 10.0 mi SW 3.5 mph - N/A   Clear
5:54 AM 72.0 °F - 68.0 °F 87% 30.16 in 9.0 mi SSW 4.6 mph - N/A   Clear
6:54 AM 73.0 °F - 69.1 °F 87% 30.17 in 8.0 mi SSW 5.8 mph - N/A   Clear
7:54 AM 77.0 °F - 71.1 °F 82% 30.18 in 10.0 mi WSW 5.8 mph - N/A   Clear
8:54 AM 82.0 °F 85.9 °F 70.0 °F 67% 30.19 in 10.0 mi WSW 9.2 mph - N/A   Clear
9:54 AM 84.9 °F 90.1 °F 71.1 °F 63% 30.18 in 10.0 mi WSW 8.1 mph - N/A   Clear
10:54 AM 87.1 °F 92.8 °F 71.1 °F 59% 30.17 in 10.0 mi SW 9.2 mph - N/A   Clear
11:54 AM 90.0 °F 96.4 °F 71.1 °F 54% 30.17 in 10.0 mi Variable 6.9 mph - N/A   Clear
12:54 PM 91.0 °F 98.2 °F 72.0 °F 53% 30.15 in 10.0 mi SW 6.9 mph - N/A   Clear
1:54 PM 93.0 °F 99.0 °F 70.0 °F 47% 30.13 in 10.0 mi Calm Calm - N/A   Clear
2:54 PM 93.9 °F 100.3 °F 70.0 °F 46% 30.12 in 10.0 mi West 10.4 mph - N/A   Scattered Clouds
3:54 PM 88.0 °F 95.6 °F 73.0 °F 61% 30.10 in 6.0 mi SE 5.8 mph - 0.05 in Rain Light Rain
4:54 PM 86.0 °F 95.1 °F 75.0 °F 70% 30.09 in 8.0 mi South 6.9 mph - 0.01 in Rain Light Rain
5:54 PM 88.0 °F 96.5 °F 73.9 °F 63% 30.10 in 10.0 mi South 12.7 mph 17.3 mph 0.01 in   Clear
6:54 PM 84.9 °F 90.1 °F 71.1 °F 63% 30.10 in 10.0 mi South 8.1 mph - N/A   Clear
7:54 PM 82.0 °F 84.9 °F 68.0 °F 62% 30.12 in 10.0 mi SSW 6.9 mph - N/A   Clear
8:54 PM 79.0 °F - 66.9 °F 66% 30.13 in 10.0 mi SSW 8.1 mph - N/A   Clear
9:54 PM 78.1 °F - 68.0 °F 71% 30.14 in 10.0 mi SSW 9.2 mph - N/A   Clear
10:54 PM 75.9 °F - 68.0 °F 76% 30.13 in 10.0 mi SSW 5.8 mph - N/A   Clear
11:54 PM 75.0 °F - 68.0 °F 79% 30.12 in 10.0 mi SW 5.8 mph - N/A   Clear